Flag for Australia Weather past 2 weeks in Townsville, Queensland, Australia

Now
70 °F

Passing clouds.


Feels Like: 70 °F
Forecast: 67 / 77 °F
Wind: 6 mph from Southeast

Location: Townsville Amo

Current Time: Jun 30, 2015 at 10:50:55 PM

Latest Report: Jun 30, 2015 at 10:00 PM


Visibility: N/A

Pressure: 30.18 "Hg

Humidity: 78%

Dew point: 63 °F

Location of TownsvilleLocation

Historic Weather in Townsville — Graph

°F

Townsville temperature yesterday

Maximum temperature yesterday: 77 °F (at 12:00 PM)
Minimum temperature yesterday: 66 °F (at 6:00 AM)
Average temperature yesterday: 72 °F

Past Weeks' High & Low Weather Summary

 TemperatureHumidityPressure
High82 °F (Jun 17, 12:00 PM)100% (Jun 18, 1:00 AM)30.21 "Hg (Jun 18, 1:00 AM)
Low55 °F (Jun 22, 3:00 AM)21% (Jun 26, 1:30 AM)29.89 "Hg (Jun 17, 3:00 PM)
Average72 °F67%30.07 "Hg
* Reported Jun 15 9:00 PM — Jun 30 9:00 PM, Townsville, Weather by CustomWeather, © 2015

Note: Actual official high and low records may vary slightly from our data, if they occured in-between our weather recording intervals... More about our weather records

Advertising

Townsville weather history for previous 24 hours

 ConditionsComfort  
Time TempWeatherWind HumidityBarometerVisibility
9:00 PM
Tue, Jun 30
70 °FPassing clouds.5 mph73%30.15 "HgN/A
8:30 PM72 °FClear.5 mph73%30.15 "HgN/A
8:00 PM72 °FClear.7 mph69%30.15 "HgN/A
7:30 PM72 °FClear.6 mph69%30.15 "HgN/A
7:00 PM72 °FClear.8 mph65%30.12 "HgN/A
6:30 PM73 °FClear.9 mph65%30.12 "HgN/A
6:00 PM75 °FClear.9 mph61%30.12 "HgN/A
5:30 PM75 °FBroken clouds.10 mph61%30.09 "HgN/A
5:00 PM75 °FBroken clouds.12 mph61%30.09 "HgN/A
4:30 PM77 °FScattered showers. Scattered clouds.15 mph57%30.09 "HgN/A
4:00 PM77 °FScattered clouds.16 mph54%30.09 "HgN/A
3:30 PM77 °FScattered showers. Partly sunny.17 mph51%30.07 "HgN/A
3:00 PM79 °FBroken clouds.18 mph42%30.09 "HgN/A
2:30 PM81 °FScattered clouds.16 mph48%30.09 "HgN/A
2:00 PM79 °FScattered clouds.15 mph51%30.09 "HgN/A
1:30 PM79 °FBroken clouds.15 mph54%30.12 "HgN/A
1:00 PM77 °FScattered showers. Partly sunny.20 mph57%30.12 "HgN/A
12:30 PM77 °FScattered showers. Partly sunny.22 mph57%30.15 "HgN/A
12:00 PM81 °FBroken clouds.18 mph54%30.15 "HgN/A
11:00 AM79 °FScattered clouds.17 mph51%30.15 "HgN/A
10:30 AM77 °FScattered clouds.18 mph54%30.15 "HgN/A
10:00 AM77 °FBroken clouds.16 mph54%30.15 "HgN/A
9:30 AM75 °FPartly sunny.17 mph61%30.18 "HgN/A
9:00 AM75 °FBroken clouds.15 mph61%30.18 "HgN/A
8:30 AM73 °FBroken clouds.10 mph65%30.15 "HgN/A
8:00 AM73 °FBroken clouds.9 mph69%30.15 "HgN/A
7:30 AM72 °FScattered clouds.7 mph73%30.12 "HgN/A
7:00 AM72 °FScattered clouds.8 mph69%30.12 "HgN/A
6:30 AM72 °FPartly cloudy.8 mph73%30.12 "HgN/A
6:00 AM72 °FPartly cloudy.13 mph69%30.09 "HgN/A
5:30 AM72 °FPassing clouds.15 mph73%30.09 "HgN/A
5:00 AM72 °FPassing clouds.13 mph73%30.09 "HgN/A
4:00 AM72 °FClear.12 mph73%30.07 "HgN/A
3:00 AM72 °FPartly cloudy.10 mph69%30.09 "HgN/A
2:30 AM70 °FDrizzle. Overcast.14 mph78%30.09 "HgN/A
2:00 AM70 °FSprinkles. Overcast.8 mph78%30.12 "HgN/A
1:30 AM70 °FSprinkles. Mostly cloudy.10 mph78%30.12 "HgN/A
1:00 AM70 °FOvercast.9 mph78%30.12 "HgN/A
12:30 AM70 °FSprinkles. Mostly cloudy.12 mph78%30.12 "HgN/A
12:00 AM70 °FMostly cloudy.12 mph78%30.12 "HgN/A
11:30 PM
Mon, Jun 29
68 °FSprinkles. Mostly cloudy.8 mph88%30.12 "HgN/A
11:00 PM70 °FSprinkles. Mostly cloudy.8 mph83%30.15 "HgN/A
10:30 PM68 °FDrizzle. Overcast.12 mph88%30.15 "Hg4 mi
10:00 PM72 °FOvercast.15 mph69%30.12 "HgN/A
Weather by CustomWeather, © 2015

See weather overviewHow to use our weather pages